Weather Roundup
Issued by NWS Springfield, MO

Home | Current Version | Previous Version | Text Only | Print | Product List | Glossary On
Versions: 1 2 3 4 5 6 7 8 9 10 11 12 13 14 15 16 17 18 19 20 21 22 23 24 25 26 27 28 29 30 31 32 33 34 35 36 37 38 39 40 41 42 43 44 45 46 47 48 49 50
000
NZUS99 KSGF 122107
HRRSGF

HOURLY WEATHER
NATIONAL WEATHER SERVICE SPRINGFIELD MO
400 PM CDT SAT JUL 12 2014

......SGF CWA......

CITY           SKY/WX    TMP DP  RH WIND       PRES   REMARKS
SPRINGFIELD    MOSUNNY   90  66  45 SW12      30.11F HX  92
JOPLIN         MOSUNNY   94  66  39 S17G23    30.08F HX  97
WEST PLAINS    MOSUNNY   89  69  51 SW7       30.14S HX  93
ROLLA          MOSUNNY   93  66  40 W9        30.08F HX  96
OSAGE BEACH    MOSUNNY   91  70  49 SW7       30.07F HX  97
BRANSON        PTSUNNY   93  70  46 SW6       30.14F HX  99

......SURROUNDING SGF CWA......

CITY           SKY/WX    TMP DP  RH WIND       PRES   REMARKS
CHANUTE        MOSUNNY   92  68  45 S14G23    30.05F HX  96
PARSONS        MOSUNNY   92  69  47 S13G21    30.06F HX  97
COFFEYVILLE    MOSUNNY   92  69  47 S10G21    30.05F HAZE    HX  97
EMPORIA        SUNNY     92  66  42 SW17      30.02F HX  94
GROVE OK       SUNNY     95  64  36 S10       30.11S HX  97
ROGERS AR      MOSUNNY   91  67  44 W10       30.14F HX  94
SILOAM SPRINGS SUNNY     91  64  40 SW13      30.14F HX  93
HARRISON AR    MOSUNNY   89  66  46 SW6       30.14F HX  91
NEAR YELLVILLE   N/A     93  64  38 S5        30.11S HX  95

......KANSAS AND MISSOURI......

CITY           SKY/WX    TMP DP  RH WIND       PRES   REMARKS
KANSAS CTY INT MOSUNNY   91  73  55 S10       30.00F HX  99
DOWNTOWN KC    MOSUNNY   94  71  47 S13       29.98F HX 101
COLUMBIA       MOSUNNY   90  72  55 S14       30.05F HX  97
SEDALIA        SUNNY     92  74  55 S16       30.05F HX 101
ST JOSEPH      SUNNY     91  73  55 S15       29.97F HX  99
ST LOUIS       PTSUNNY   96  66  37 SW12      30.04F HX  99
SPIRIT OF STL  PTSUNNY   94  69  44 SW12      30.03F HX  99
KIRKSVILLE     MOSUNNY   88  73  61 SW10      30.01F HX  95
WICHITA        MOSUNNY   92  65  40 SW17      30.02S HX  94
TOPEKA         SUNNY     96  65  35 SW12G23   29.98F HX  98
OLATHE         SUNNY     92  68  45 SW14      30.01F HX  96

......TENNESSEE......

CITY           SKY/WX    TMP DP  RH WIND       PRES   REMARKS
MEMPHIS        PTSUNNY   90  69  50 VRB5      30.12F HX  94
NASHVILLE      PTSUNNY   91  64  40 W5        30.13F HX  92

......ARKANSAS.......

CITY           SKY/WX    TMP DP  RH WIND       PRES   REMARKS
FAYETTEVILLE   MOSUNNY   89  69  51 SW13      30.13F HX  93
FT SMITH       SUNNY     94  66  39 VRB6      30.09S HX  97
LITTLE ROCK    MOSUNNY   93  72  50 SE8       30.09F HX 101

......OKLAHOMA.......

CITY           SKY/WX    TMP DP  RH WIND       PRES   REMARKS
TULSA          SUNNY     95  63  34 S12       30.05F HX  96
PONCA CITY     SUNNY     95  61  32 SW12G18   30.03F HX  95
MCALESTER      SUNNY     94  57  28 SW9       30.10F HX  92
OKLAHOMA CITY  MOSUNNY   95  58  28 S12       30.07F HX  94

......IOWA............

CITY           SKY/WX    TMP DP  RH WIND       PRES   REMARKS
DES MOINES     PTSUNNY   88  74  63 NW7       29.93F HX  96
QUAD CITIES    PTSUNNY   87  76  69 SW7       29.93F HX  97

......ILLINOIS........

CITY           SKY/WX    TMP DP  RH WIND       PRES   REMARKS
QUINCY         MOSUNNY   89  73  59 SW16      30.00F HX  97
CHICAGO        CLOUDY    79  69  71 SW13G20   29.97F



USA.gov is the U.S. government's official web portal to all federal, state and local government web resources and services.